Regional Weather Roundup
Issued by NWS

Home | Current Version | Previous Version | Text Only | Print | Product List | Glossary Off
Versions: 1 2 3 4 5 6 7 8 9 10 11 12 13 14 15 16 17 18 19 20 21 22 23 24 25 26 27 28 29 30 31 32 33 34 35 36 37 38 39 40 41 42 43 44 45 46 47 48 49 50

000
ASUS45 KABQ 260501
RWRNM
WEATHER ROUNDUP FOR NEW MEXICO
NATIONAL WEATHER SERVICE ALBUQUERQUE NM
1000 PM MST SUN JAN 25 2015

NOTE: "FAIR" MEANS FEW OR NO CLOUDS BELOW 12,000 FEET AGL WITH NO
       SIGNIFICANT WEATHER OR OBSTRUCTIONS TO VISION.

      THIS PRODUCT IS RELEASED AS TWO VERSIONS.  ONE VERSION NEAR
      THE TOP OF THE HOUR CONTAINING PRELIMINARY DATA FROM ALBUQUERQUE
      AND OTHER STATIONS.  A FINAL VERSION WITH ADDITIONAL DATA IS
      ISSUED ABOUT 10 MINUTES AFTER THE HOUR.

NMZ501-503-504-510>518-260600-
NORTHWEST PLATEAU/NORTHCENTRAL MOUNTAINS

CITY           SKY/WX    TMP DP  RH WIND       PRES   REMARKS
FARMINGTON     CLEAR     29  20  69 NE6       30.31R WCI  23
SANTA FE       CLEAR     31  23  72 N5        30.29R WCI  26
TAOS           PTCLDY    30  21  69 SE5       30.34R WCI  25

$$
NMZ402-403-502-505>509-260600-
WESTCENTRAL MOUNTAINS/SOUTHWEST MOUNTAINS

CITY           SKY/WX    TMP DP  RH WIND       PRES   REMARKS
GALLUP         CLEAR     31  24  75 E3        30.35R
SILVER CITY    MOCLDY    34  23  64 N9        30.32F WCI  26

$$
NMZ407-409-411-412-260600-
SOUTHERN DESERTS

CITY           SKY/WX    TMP DP  RH WIND       PRES   REMARKS
DEMING         MOCLDY    38  27  64 N8        30.28F WCI  32
HOLLOMAN AFB   MOCLDY    35  28  74 E6        30.30R WCI  30
ALAMOGORDO     MOCLDY    37  25  60 CALM      30.31S
T OR C         PTCLDY    40  22  48 W7        30.31R

$$
NMZ519>523-260600-
CENTRAL VALLEYS/CENTRAL HIGHLANDS

CITY           SKY/WX    TMP DP  RH WIND       PRES   REMARKS
ALBUQUERQUE    CLEAR     43  24  47 N7        30.32R
DOUBLE EAGLE   PTCLDY    32  23  69 NW8       30.32R WCI  25
MORIARTY ARPT  FAIR      27  23  84 CALM      30.33R
CLINES CORNERS PTCLDY    31  20  63 SW8       30.30R WCI  23
BELEN          FAIR      33  26  75 NW9       30.32R WCI  25
SOCORRO        NOT AVBL

$$
NMZ524>526-539-540-260600-
SOUTHCENTRAL MOUNTAINS

CITY           SKY/WX    TMP DP  RH WIND       PRES   REMARKS
RUIDOSO        NOT AVBL

$$
NMZ527>531-260600-
NORTHEAST HIGHLANDS/NORTHEAST PLAINS

CITY           SKY/WX    TMP DP  RH WIND       PRES   REMARKS
LAS VEGAS      PTCLDY    30  23  75 N6        30.31R WCI  24
RATON          PTCLDY    28  23  81 NE7       30.29R WCI  21
CLAYTON        CLEAR     41  25  53 W14       30.23S

$$
NMZ532>537-260600-
EASTCENTRAL PLAINS

CITY           SKY/WX    TMP DP  RH WIND       PRES   REMARKS
TUCUMCARI      CLEAR     34  29  82 W9        30.28R WCI  27
CANNON AFB     CLEAR     41  29  62 NW9       30.28R
CLOVIS AIRPORT PTCLDY    34  28  80 W9        30.28R WCI  26

$$
NMZ028-029-538-260600-
SOUTHEAST PLAINS

CITY           SKY/WX    TMP DP  RH WIND       PRES   REMARKS
ROSWELL        CLEAR     35  29  78 SW9       30.28R WCI  28
ARTESIA        CLEAR     37  32  81 SW12      30.31R WCI  30
CARLSBAD       CLEAR     36  28  73 SW6       30.29R WCI  31
HOBBS          PTCLDY    36  28  75 W7        30.30S WCI  30


$$



USA.gov is the U.S. government's official web portal to all federal, state and local government web resources and services.